Home   Weather   Mattersburg   Past weeks

Flag for Austria Past Weather in Mattersburg, Burgenland, Austria — Yesterday and Last 2 Weeks

Now
35 °F

Chilly.


Feels Like: 35 °F
Forecast: 37 / 45 °F
Wind: 1 mph from Northwest

Location: Eisenstadt

Current Time: Dec 11, 2016 at 8:59:47 am

Latest Report: Dec 11, 2016 at 8:00 am


Visibility: N/A

Pressure: 30.07 "Hg

Humidity: 82%

Dew Point: 30 °F

Location of MattersburgLocation

Past Weather in Mattersburg — Graph

°F

Mattersburg Temperature Yesterday

Maximum temperature yesterday: 61 °F (at 1:00 pm)
Minimum temperature yesterday: 41 °F (at 12:00 am)
Average temperature yesterday: 48 °F

High & Low Weather Summary for the Past Weeks

 TemperatureHumidityPressure
High61 °F (Dec 10, 1:00 pm)99% (Dec 9, 11:00 am)30.70 "Hg (Dec 9, 11:00 am)
Low24 °F (Dec 4, 8:00 am)32% (Nov 30, 10:00 pm)29.78 "Hg (Dec 2, 8:00 am)
Average36 °F73%30.31 "Hg
* Reported Nov 26 7:00 am — Dec 11 7:00 am, Mattersburg, Weather by CustomWeather, © 2016

Note: Actual official high and low records may vary slightly from our data, if they occured in-between our weather recording intervals... More about our weather records

Advertising

Mattersburg Weather History for the Previous 24 Hours

Scroll right to see more
 ConditionsComfort  
Time TempWeatherWind HumidityBarometerVisibility
7:00 am
Sun, Dec 11
33 °FPassing clouds.2 mph85%30.08 "Hg9 mi
6:00 am33 °FClear.1 mph84%30.08 "Hg9 mi
5:00 am35 °FChilly.2 mph80%30.09 "HgN/A
4:00 am35 °FChilly.1 mph83%30.11 "HgN/A
3:00 am35 °FChilly.1 mph85%30.14 "HgN/A
2:00 am38 °FChilly.1 mph78%30.16 "HgN/A
1:00 am38 °FChilly.1 mph79%30.16 "HgN/A
12:00 am41 °FQuite cool.2 mph73%30.17 "HgN/A
11:00 pm
Sat, Dec 10
42 °FQuite cool.2 mph77%30.18 "HgN/A
10:00 pm43 °FClear.2 mph79%30.18 "Hg12 mi
9:00 pm43 °FQuite cool.3 mph79%30.19 "HgN/A
8:00 pm44 °FQuite cool.2 mph76%30.20 "HgN/A
7:00 pm44 °FPassing clouds.3 mph76%30.22 "Hg12 mi
6:00 pm47 °FCool.2 mph74%30.22 "HgN/A
5:00 pm48 °FCool.2 mph72%30.23 "HgN/A
4:00 pm52 °FScattered clouds.No wind66%30.22 "Hg12 mi
3:00 pm57 °FRefreshingly cool.2 mph55%30.23 "HgN/A
2:00 pm60 °FRefreshingly cool.2 mph50%30.23 "HgN/A
1:00 pm61 °FOvercast.3 mph49%30.24 "Hg12 mi
12:00 pm58 °FRefreshingly cool.3 mph52%30.26 "HgN/A
11:00 am56 °FRefreshingly cool.6 mph57%30.28 "HgN/A
10:00 am45 °FPartly sunny.2 mph73%30.32 "Hg12 mi
9:00 am42 °FQuite cool.1 mph80%30.30 "HgN/A
8:00 am41 °FQuite cool.3 mph84%30.30 "HgN/A
Weather by CustomWeather, © 2016

See weather overviewHow to use our weather pages